User: anonymous   Login
Location: Caltech
(34.1382°N, 118.1253°W)
Time: 03:13:06
(UTC-07:00)
Language:

Meteor 1-11 Rocket - Orbit

View from above orbital plane
View from above orbital plane
View from above satellite
View from above satellite

Ground track
Ground track

The orbit data is extracted from the following two-line orbital elements,

1 05918U 72022B   14298.12119885  .00000081  00000-0  41068-4 0  2844
2 05918 081.2377 180.3741 0059176 160.2587 301.0720 14.05726561182263
Epoch (UTC): 25 October 2014 02:54:31
Eccentricity: 0.0059176
inclination: 81.2377°
perigee height: 831 km
apogee height: 917 km
right ascension of ascending node: 180.3741°
argument of perigee: 160.2587°
revolutions per day: 14.05726561
mean anomaly at epoch: 301.0720°
orbit number at epoch: 18226

The dashed part of the orbit path shows where the satellite is in the earth's shadow,  

DLR